Location: Fort Wayne
(41.1310°N, 85.1290°W)
Time: 12:07:53
(UTC-04:00)

Iridium 37 - Visible Passes

Search period start: 29 May 2015 00:00
Search period end: 08 June 2015 00:00
Orbit: 776 x 779 km, 86.4° (Epoch: 28 May)

Date Brightness Start Highest point End Pass type
(mag) Time Alt. Az. Time Alt. Az. Time Alt. Az.
29 May 5.4 03:32:41 46° S 03:34:17 87° E 03:39:33 10° N visible
29 May 7.6 05:14:38 10° W 05:15:55 11° WNW 05:16:51 10° WNW visible
30 May 6.2 02:59:21 37° SE 03:00:49 47° E 03:05:50 10° NNE visible
30 May 7.1 04:39:49 16° WSW 04:41:54 20° WNW 04:45:36 10° NNW visible
31 May 7.1 02:26:00 22° ESE 02:27:28 26° E 02:31:46 10° NNE visible
31 May 6.3 04:06:29 29° WSW 04:08:04 35° W 04:12:49 10° NNW visible
01 Jun 7.8 01:52:39 12° E 01:54:11 14° E 01:57:00 10° NE visible
01 Jun 5.5 03:33:07 48° SW 03:34:24 65° W 03:39:36 10° N visible
02 Jun 5.6 02:59:46 52° SSE 03:00:52 69° E 03:06:04 10° N visible
02 Jun 7.4 04:40:14 12° W 04:42:16 14° WNW 04:44:45 10° NW visible
03 Jun 6.5 02:26:23 33° ESE 02:27:27 37° E 02:32:14 10° NNE visible
03 Jun 6.8 04:06:52 22° WSW 04:08:19 25° WNW 04:12:32 10° NNW visible
04 Jun 7.3 01:53:00 19° E 01:54:07 21° E 01:57:58 10° NNE visible
04 Jun 6.0 03:33:29 39° WSW 03:34:33 45° W 03:39:32 10° N visible
05 Jun 7.9 01:19:43 10° E 01:20:52 11° ENE 01:22:22 10° ENE visible
05 Jun 5.4 03:00:05 63° SSW 03:00:57 83° W 03:06:12 10° N visible
06 Jun 5.9 02:26:42 49° ESE 02:27:27 53° E 02:32:33 10° NNE visible
06 Jun 7.2 04:07:10 16° W 04:08:38 18° WNW 04:11:59 10° NNW visible
07 Jun 6.8 01:53:17 28° E 01:54:04 29° E 01:58:33 10° NNE visible
07 Jun 6.5 03:33:46 29° W 03:34:45 31° W 03:39:21 10° NNW visible
